Wind_Speed
46 52 52 42 41 43 49 50 48 48 53 53 52 49 47 47 45 40 39 37 33 31 33 31 30 31 31 30 31 31 29 26 24 23 21 20 20 31 30 28 27 28 25 24
49 47 46 48 48 47 47 47 48 46 50 54 54 52 49 50 49 45 43 42 38 34 33 33 32 30 30 31 31 31 30 31 29 27 23 22 24 31 28 26 26 26 26 23
47 46 46 46 47 48 47 49 46 47 50 53 54 56 51 50 50 48 46 45 43 39 36 35 34 33 33 31 32 32 30 30 29 29 27 30 29 32 26 24 24 25 25 22
53 49 48 49 49 50 54 51 47 47 49 52 52 57 50 50 51 50 47 46 46 44 42 39 37 35 33 33 34 33 33 33 31 31 31 30 31 30 27 25 23 23 23 22
55 50 47 45 41 43 46 47 49 51 51 52 52 55 49 47 50 48 47 47 46 46 45 43 41 39 38 35 34 34 33 31 30 31 30 30 29 28 26 24 24 22 21 21
62 58 55 51 47 44 45 46 47 48 52 58 54 50 54 43 42 44 45 45 44 44 45 43 42 43 40 37 34 34 34 34 32 31 30 29 28 27 26 23 24 22 21 20
71 68 63 57 55 52 48 46 48 51 53 54 53 54 55 43 38 38 40 41 42 42 40 42 43 43 42 38 37 36 36 35 34 32 31 30 28 27 27 24 24 22 21 20
71 71 65 62 58 54 50 48 46 43 43 46 47 46 45 42 40 43 44 41 40 39 38 38 39 41 44 42 39 38 37 36 35 33 32 31 30 28 27 25 24 22 20 20
75 75 71 68 63 59 58 53 48 47 45 41 41 40 40 37 32 34 36 37 38 38 38 39 39 38 39 40 39 38 39 38 36 34 32 31 30 29 28 26 25 23 21 20
73 72 74 70 69 68 63 55 53 51 48 46 41 37 35 36 27 27 29 32 33 35 34 33 35 38 36 36 35 36 36 35 33 32 31 30 30 29 28 27 26 24 22 20
74 75 75 75 77 72 68 69 64 59 55 50 46 39 35 31 24 21 17 19 24 29 31 28 28 29 34 32 32 31 30 31 33 33 31 32 31 29 28 27 27 24 23 22
67 75 76 75 73 71 70 67 61 60 58 54 50 44 38 33 27 26 22 16 14 18 21 20 23 25 30 28 28 31 31 29 29 31 32 32 30 30 29 28 27 24 23 23
66 70 69 69 71 74 74 71 68 63 59 57 54 50 45 37 33 27 21 18 16 16 15 20 22 21 23 30 32 30 29 28 29 29 28 29 30 29 29 28 27 25 24 24
67 69 73 75 74 68 70 73 74 70 68 62 55 53 49 46 39 29 27 25 24 23 20 16 17 20 24 25 30 33 33 30 28 29 30 29 29 30 29 28 27 25 24 24
55 62 72 74 70 71 69 65 67 69 67 70 59 61 59 53 42 35 34 32 31 29 24 22 18 16 16 20 24 27 27 29 29 29 29 29 30 29 28 27 26 25 25 25
56 57 60 72 70 73 74 71 67 70 69 67 63 64 59 55 49 44 39 38 35 32 28 27 25 21 22 20 20 21 22 24 26 29 30 31 31 29 27 26 25 25 25 24
55 56 62 53 56 68 74 79 76 72 70 69 72 62 60 59 54 50 44 43 41 38 36 31 27 23 24 23 22 21 22 23 24 25 26 25 25 26 27 27 26 25 25 23
60 63 60 59 46 56 70 73 73 71 68 68 71 69 65 66 62 58 54 53 50 45 44 37 30 27 25 25 26 24 20 18 18 20 21 23 23 24 25 25 26 27 25 24
61 66 71 61 63 60 63 68 69 76 77 75 74 69 68 67 67 63 56 55 51 49 48 41 36 31 28 29 25 20 18 18 19 20 20 22 24 26 27 27 27 27 27 28
69 72 71 70 67 72 63 57 54 55 64 60 63 72 76 77 79 64 61 59 55 51 50 47 42 37 36 37 32 28 25 24 21 20 22 23 24 27 28 29 29 29 30 33
77 81 81 72 71 73 69 60 62 56 58 53 59 59 63 76 72 72 69 68 64 59 57 56 50 44 42 41 37 32 30 29 29 29 28 27 26 28 29 31 31 34 37 36
77 77 72 83 71 81 74 65 74 62 53 61 62 64 68 71 67 65 69 72 69 67 64 62 57 52 48 46 44 39 37 37 36 34 31 29 28 29 30 32 34 35 37 35
88 81 83 88 82 77 87 80 73 69 60 58 63 67 69 67 63 59 60 64 67 67 66 66 63 57 54 52 50 45 42 41 40 37 34 33 32 31 33 33 35 35 36 33
77 87 88 78 84 88 72 79 81 77 72 65 56 62 75 71 67 64 62 53 50 58 67 68 66 61 58 58 55 50 48 48 44 41 40 39 37 36 35 37 38 37 36 33
47 56 75 82 79 78 90 80 78 76 84 80 74 64 64 67 63 58 61 64 54 60 62 69 68 66 63 61 59 56 53 51 47 44 44 40 39 40 40 40 40 40 35 35
32 35 54 69 80 74 73 71 80 84 83 82 83 72 65 72 72 72 64 60 57 57 59 61 68 69 69 67 64 62 59 56 51 48 48 44 44 42 43 42 41 38 36 37
Wind_Direction
238 237 240 243 240 240 239 236 235 234 233 235 235 233 232 233 236 234 236 238 236 232 237 238 235 238 244 250 253 253 256 263 270 278 290 297 306 305 312 318 326 331 335 344
238 237 235 235 237 241 243 241 239 240 238 235 235 236 232 237 238 236 238 240 241 238 238 239 241 242 245 247 252 257 260 265 271 276 283 293 300 293 303 313 321 327 331 340
239 237 237 236 236 237 241 243 242 243 242 239 237 236 234 236 240 239 237 241 242 242 240 241 241 241 241 247 253 256 259 263 269 276 280 286 282 289 297 306 315 322 326 335
234 232 234 235 236 241 240 242 242 244 245 243 241 238 235 237 240 242 242 239 241 244 243 240 243 244 244 243 246 251 255 258 261 265 270 272 280 285 293 301 309 315 320 326
237 234 238 240 237 240 242 239 240 242 244 246 243 244 229 237 240 243 245 245 242 241 242 245 244 244 244 245 246 250 254 258 260 261 264 267 273 281 287 296 301 307 314 320
233 232 231 232 233 233 235 237 242 242 242 246 246 248 237 235 242 245 245 246 249 246 243 243 244 248 248 248 249 250 252 254 255 258 263 268 272 278 283 290 295 302 308 313
229 230 231 230 231 232 232 234 235 238 244 246 247 247 243 242 242 244 247 248 248 247 246 244 242 244 247 246 246 248 251 254 256 259 263 266 270 273 278 282 287 296 302 307
234 235 234 234 233 235 238 236 239 244 246 247 249 245 246 248 249 250 248 248 249 251 252 250 247 244 245 246 245 248 250 253 255 256 259 264 267 270 274 278 284 290 297 302
232 233 232 235 236 235 234 234 236 240 243 242 245 244 243 244 239 238 241 243 244 247 248 249 248 248 246 246 246 246 249 251 256 256 257 260 263 268 271 274 280 285 290 294
233 234 235 235 236 233 233 235 237 237 238 240 240 236 234 236 234 234 238 242 240 241 244 246 247 246 248 247 248 247 248 251 253 256 259 261 262 265 267 273 278 281 285 286
229 231 232 234 232 233 232 233 232 233 235 239 239 234 229 229 226 226 219 227 234 236 237 239 241 241 243 245 245 244 244 245 247 249 251 254 257 259 265 270 273 277 280 281
227 231 233 233 235 235 235 235 238 241 240 240 243 241 244 235 222 215 216 213 218 227 224 223 227 231 236 235 237 238 241 242 241 244 247 251 256 260 262 264 268 272 276 277
226 228 232 234 233 230 231 231 233 233 233 232 233 232 233 228 219 215 225 233 225 217 216 218 221 225 229 234 234 236 235 239 244 244 245 247 251 255 258 262 267 269 270 272
222 228 229 233 235 235 233 232 230 231 230 230 229 233 231 230 230 229 230 233 233 228 226 229 222 228 233 233 233 234 236 239 242 247 249 250 252 255 258 262 264 265 268 270
215 226 229 228 229 231 234 234 236 236 232 232 228 233 238 238 235 234 234 232 233 236 227 214 216 224 225 231 236 235 238 243 245 247 249 250 252 256 259 261 262 265 267 269
219 217 222 228 228 229 229 231 231 229 226 229 228 230 234 240 237 233 229 231 231 234 228 229 233 231 229 226 226 228 235 242 245 246 249 251 254 256 256 260 264 266 267 271
209 217 215 215 228 226 230 229 228 229 225 225 224 225 228 233 235 235 229 230 233 234 233 231 231 225 218 216 219 221 228 235 245 252 256 259 260 260 260 260 263 262 266 271
208 221 209 212 211 219 228 228 227 227 227 224 223 224 227 230 232 231 229 227 228 229 235 232 226 214 216 220 217 218 223 228 235 245 253 261 265 264 264 261 262 266 264 265
215 216 220 220 217 218 220 224 230 229 227 225 223 225 230 232 233 230 228 229 227 226 232 230 225 220 216 215 211 211 232 242 237 238 244 249 254 259 262 263 263 266 269 271
219 218 224 228 223 219 208 220 219 222 227 219 224 225 228 230 231 230 226 226 225 223 227 230 226 220 215 213 214 226 238 235 228 231 236 241 249 256 260 264 266 268 273 275
217 228 235 236 238 220 210 220 223 219 224 214 215 218 220 227 229 227 225 223 222 220 221 226 224 221 219 217 218 226 227 227 227 226 230 235 243 252 257 262 267 272 280 286
225 230 227 229 235 238 222 223 224 219 223 221 218 228 235 236 235 230 226 223 221 216 216 222 220 218 217 217 221 227 226 227 225 227 229 230 236 244 251 258 265 272 277 282
233 229 235 237 232 239 233 227 229 226 224 230 235 235 237 235 230 226 224 222 220 221 219 219 221 218 216 216 220 223 224 226 226 226 226 230 233 240 249 256 262 268 272 278
243 239 240 236 236 232 223 222 223 232 225 220 220 222 228 231 230 229 229 227 229 229 227 219 220 219 219 217 218 220 222 225 225 225 227 227 232 238 245 252 257 261 264 271
247 249 245 246 242 239 238 237 228 224 225 217 227 222 220 225 223 226 233 243 246 234 227 222 218 219 220 220 220 220 223 223 223 229 232 229 233 238 244 249 254 256 259 263
244 252 242 239 239 241 243 240 233 231 228 225 224 227 231 233 235 235 242 240 231 221 216 217 217 218 219 220 221 221 222 223 224 229 230 232 233 237 242 248 251 256 258 257
Height
5704 5709 5719 5726 5726 5726 5731 5736 5741 5745 5748 5752 5756 5763 5767 5770 5773 5780 5783 5786 5790 5795 5796 5801 5804 5806 5808 5810 5811 5812 5814 5815 5816 5815 5815 5813 5811 5810 5807 5804 5800 5797 5793 5789
5695 5702 5708 5710 5713 5718 5723 5727 5734 5736 5739 5742 5746 5752 5759 5762 5765 5772 5776 5779 5784 5787 5790 5794 5797 5800 5802 5804 5805 5807 5809 5809 5810 5810 5810 5809 5807 5805 5803 5800 5797 5795 5792 5788
5686 5694 5695 5697 5704 5708 5713 5718 5724 5726 5727 5731 5736 5742 5750 5754 5757 5762 5769 5772 5775 5780 5784 5786 5789 5792 5794 5797 5798 5800 5802 5803 5805 5804 5805 5804 5802 5801 5799 5796 5794 5792 5790 5786
5673 5678 5683 5687 5693 5699 5702 5709 5711 5714 5717 5722 5727 5731 5742 5746 5749 5754 5758 5763 5768 5771 5775 5779 5782 5786 5788 5789 5790 5792 5794 5795 5797 5797 5798 5797 5797 5796 5795 5793 5790 5788 5786 5783
5665 5672 5675 5679 5688 5689 5695 5697 5699 5702 5707 5710 5718 5719 5736 5737 5742 5745 5748 5753 5758 5762 5766 5770 5775 5777 5779 5782 5783 5785 5787 5789 5791 5790 5791 5790 5790 5790 5789 5788 5787 5785 5783 5780
5648 5654 5660 5669 5674 5677 5681 5685 5688 5691 5695 5699 5709 5711 5720 5733 5735 5736 5740 5744 5748 5752 5757 5761 5765 5767 5772 5774 5777 5778 5779 5781 5783 5783 5784 5785 5785 5785 5784 5783 5782 5781 5779 5777
5630 5636 5646 5655 5661 5665 5670 5675 5678 5681 5684 5693 5697 5701 5711 5722 5727 5729 5731 5734 5737 5742 5746 5751 5755 5759 5761 5765 5768 5769 5772 5774 5775 5777 5778 5778 5779 5778 5778 5778 5777 5777 5776 5774
5619 5625 5637 5644 5650 5658 5663 5667 5672 5675 5680 5685 5686 5694 5704 5710 5716 5720 5723 5726 5729 5733 5737 5741 5746 5750 5752 5755 5758 5761 5764 5765 5767 5770 5771 5772 5773 5773 5773 5772 5772 5772 5771 5770
5602 5608 5618 5628 5637 5645 5649 5655 5663 5665 5670 5675 5680 5690 5696 5701 5707 5709 5711 5716 5720 5723 5726 5731 5735 5740 5744 5746 5749 5752 5755 5757 5760 5763 5764 5765 5766 5767 5767 5766 5767 5767 5766 5765
5582 5592 5601 5611 5616 5624 5634 5647 5648 5653 5659 5665 5674 5680 5688 5693 5698 5699 5703 5706 5710 5714 5718 5722 5725 5730 5734 5737 5740 5743 5746 5749 5751 5754 5757 5758 5759 5760 5761 5761 5761 5762 5761 5760
5564 5572 5581 5583 5594 5611 5620 5622 5632 5641 5649 5656 5664 5673 5679 5684 5691 5693 5697 5699 5702 5706 5710 5713 5716 5720 5725 5728 5731 5734 5737 5740 5743 5746 5748 5750 5752 5753 5754 5754 5755 5755 5756 5755
5552 5552 5558 5572 5582 5594 5603 5612 5622 5631 5642 5649 5656 5666 5671 5678 5683 5686 5690 5694 5697 5699 5702 5704 5707 5711 5715 5719 5722 5725 5728 5731 5733 5736 5739 5741 5744 5746 5747 5747 5748 5748 5749 5750
5535 5532 5543 5552 5560 5569 5580 5596 5607 5617 5626 5634 5645 5654 5659 5667 5673 5678 5683 5686 5690 5693 5694 5697 5700 5703 5706 5709 5713 5716 5719 5722 5726 5728 5730 5732 5735 5737 5739 5740 5741 5742 5743 5744
5514 5518 5528 5539 5555 5564 5571 5579 5587 5596 5608 5623 5633 5641 5649 5656 5664 5673 5676 5678 5681 5685 5689 5691 5693 5695 5698 5701 5704 5708 5712 5715 5718 5721 5724 5726 5728 5729 5731 5733 5734 5735 5737 5737
5501 5506 5515 5526 5533 5543 5554 5564 5572 5580 5603 5602 5629 5628 5634 5645 5656 5663 5667 5669 5672 5676 5681 5685 5688 5690 5692 5695 5698 5701 5704 5708 5711 5714 5717 5719 5720 5722 5724 5726 5727 5728 5730 5731
5487 5495 5500 5507 5519 5526 5533 5543 5551 5564 5580 5590 5608 5614 5624 5632 5640 5648 5657 5659 5662 5666 5672 5677 5681 5684 5686 5688 5691 5694 5697 5701 5704 5707 5710 5712 5714 5716 5717 5719 5721 5722 5724 5725
5474 5480 5488 5493 5502 5511 5509 5524 5537 5553 5567 5580 5584 5608 5613 5616 5624 5635 5644 5649 5652 5656 5661 5667 5672 5676 5679 5682 5685 5688 5690 5693 5697 5700 5703 5705 5708 5710 5711 5713 5715 5716 5718 5719
5455 5464 5472 5479 5487 5489 5496 5507 5522 5537 5551 5563 5576 5591 5598 5599 5608 5616 5627 5634 5639 5645 5649 5656 5662 5667 5670 5674 5677 5680 5684 5688 5690 5693 5696 5699 5701 5703 5705 5707 5709 5711 5711 5712
5445 5450 5455 5461 5468 5474 5483 5493 5502 5512 5533 5550 5562 5573 5577 5585 5587 5601 5616 5620 5627 5634 5639 5647 5653 5658 5661 5665 5668 5673 5677 5680 5683 5686 5688 5690 5692 5695 5698 5700 5702 5703 5705 5706
5435 5437 5440 5447 5452 5457 5477 5480 5491 5501 5505 5534 5545 5554 5561 5563 5561 5593 5597 5605 5614 5622 5627 5634 5641 5646 5650 5654 5659 5663 5668 5671 5674 5677 5680 5682 5684 5687 5690 5692 5694 5695 5696 5698
5420 5420 5422 5431 5434 5442 5460 5467 5477 5487 5503 5517 5523 5533 5540 5535 5555 5568 5575 5583 5592 5602 5610 5617 5625 5632 5637 5642 5647 5652 5657 5661 5664 5665 5668 5672 5676 5679 5680 5683 5685 5687 5688 5689
5404 5408 5412 5418 5417 5422 5448 5458 5462 5486 5489 5495 5506 5517 5524 5523 5539 5551 5557 5564 5574 5583 5589 5596 5606 5615 5621 5628 5634 5639 5644 5648 5652 5655 5658 5662 5665 5668 5670 5673 5675 5677 5678 5680
5379 5387 5397 5401 5403 5418 5437 5444 5453 5462 5473 5478 5485 5497 5500 5504 5521 5535 5544 5553 5562 5570 5577 5583 5590 5599 5606 5613 5619 5626 5632 5636 5640 5644 5649 5652 5655 5658 5661 5663 5665 5667 5669 5671
5365 5378 5376 5385 5390 5402 5415 5431 5441 5449 5458 5468 5474 5479 5482 5488 5504 5518 5526 5539 5549 5557 5564 5569 5576 5584 5592 5598 5605 5612 5617 5621 5627 5633 5637 5640 5644 5647 5650 5653 5655 5657 5660 5662
5353 5362 5363 5364 5376 5389 5396 5409 5421 5431 5441 5454 5456 5465 5465 5469 5482 5495 5505 5514 5529 5540 5545 5552 5562 5570 5578 5585 5592 5598 5603 5609 5615 5620 5625 5629 5632 5636 5639 5642 5644 5646 5650 5652
5339 5342 5341 5342 5363 5373 5384 5396 5405 5410 5417 5429 5436 5442 5450 5450 5462 5476 5486 5497 5509 5521 5528 5536 5545 5553 5561 5568 5577 5584 5589 5596 5602 5606 5612 5617 5621 5624 5627 5630 5632 5637 5639 5639